Princeton, MN

1:31 AM CST on November 15, 2019 (GMT -0600)
Princeton Municipal

Weather History for KPNM - June, 2019

Change the Weather History Date:

Friday, June 7, 2019

  Actual Average Record
Temperature  
Mean Temperature 74 °F -  
Max Temperature 89 °F 71 °F 98 °F (2011)
Min Temperature 59 °F 49 °F 35 °F (1998)
Cooling Degree Days 9    
Growing Degree Days 24 (Base 50)    
Moisture  
Dew Point 58 °F    
Average Humidity 54    
Maximum Humidity 88    
Minimum Humidity 31    
Precipitation  
Precipitation 0.00 in - - ()
Sea Level Pressure  
Sea Level Pressure 29.89 in    
Wind  
Wind Speed 5 mph (SSE)    
Max Wind Speed 16 mph    
Max Gust Speed 22 mph    
Visibility 10 miles    
Events      
Averages and records for this station are not official NWS values.
T = Trace of Precipitation, MM = Missing Value Source: NWS Daily Summary

Daily Weather History Graph

Daily Weather History Graph

Search for Another Location

Airport or City:

Astronomy

Jun. 07, 2019 Rise Set
Actual Time 5:26 AM CDT 9:00 PM CDT
Civil Twilight 4:48 AM CDT 9:38 PM CDT
Nautical Twilight 3:59 AM CDT 10:28 PM CDT
Astronomical Twilight 2:53 AM CDT 11:34 PM CDT
Moon 9:47 AM CDT (6/7) 12:15 AM CDT (6/7)
Length of Visible Light 16h 49m
Length of Day
15h 34m
Waxing Crescent, 22% of the Moon is Illuminated
Jun 7
Waxing Crescent
Jun 10
First Quarter
Jun 17
Full
Jun 25
Last Quarter
Jul 2
New

Hourly Weather History & Observations

Time (CDT) Temp. Heat Index Dew Point Humidity Pressure Visibility Wind Dir Wind Speed Gust Speed Precip Events Conditions
12:15 AM 68.0 °F - 55.4 °F 64% 29.87 in 10.0 mi East 3.5 mph - N/A   Clear
12:16 AM 68.0 °F - 55.4 °F 64% 29.87 in 10.0 mi East 3.5 mph - N/A   Clear
12:35 AM 68.0 °F - 55.4 °F 64% 29.87 in 10.0 mi East 3.5 mph - N/A   Clear
12:58 AM 66.2 °F - 55.4 °F 68% 29.87 in 10.0 mi ESE 3.5 mph - N/A   Scattered Clouds
1:16 AM 68.0 °F - 55.4 °F 64% 29.87 in 10.0 mi Calm Calm - N/A   Mostly Cloudy
1:35 AM 68.0 °F - 55.4 °F 64% 29.88 in 10.0 mi Calm Calm - N/A   Mostly Cloudy
1:36 AM 68.0 °F - 55.4 °F 64% 29.88 in 10.0 mi Calm Calm - N/A   Mostly Cloudy
1:55 AM 69.8 °F - 55.4 °F 60% 29.88 in 10.0 mi Calm Calm - N/A   Mostly Cloudy
1:56 AM 68.0 °F - 55.4 °F 64% 29.88 in 10.0 mi Calm Calm - N/A   Mostly Cloudy
2:19 AM 66.2 °F - 55.4 °F 68% 29.88 in 10.0 mi Calm Calm - N/A   Scattered Clouds
2:37 AM 66.2 °F - 55.4 °F 68% 29.88 in 10.0 mi ESE 3.5 mph - N/A   Scattered Clouds
2:55 AM 66.2 °F - 55.4 °F 68% 29.88 in 10.0 mi Calm Calm - N/A   Scattered Clouds
2:56 AM 66.2 °F - 55.4 °F 68% 29.88 in 10.0 mi Calm Calm - N/A   Scattered Clouds
3:15 AM 66.2 °F - 55.4 °F 68% 29.88 in 10.0 mi Calm Calm - N/A   Scattered Clouds
3:16 AM 66.2 °F - 55.4 °F 68% 29.88 in 10.0 mi Calm Calm - N/A   Scattered Clouds
3:35 AM 64.4 °F - 55.4 °F 73% 29.88 in 10.0 mi Calm Calm - N/A   Scattered Clouds
3:40 AM 64.4 °F - 55.4 °F 73% 29.88 in 10.0 mi Calm Calm - N/A   Scattered Clouds
3:58 AM 62.6 °F - 55.4 °F 77% 29.88 in 10.0 mi Calm Calm - N/A   Clear
4:16 AM 62.6 °F - 55.4 °F 77% 29.88 in 10.0 mi Calm Calm - N/A   Clear
4:35 AM 62.6 °F - 55.4 °F 77% 29.88 in 10.0 mi Calm Calm - N/A   Scattered Clouds
4:36 AM 62.6 °F - 55.4 °F 77% 29.88 in 10.0 mi Calm Calm - N/A   Scattered Clouds
4:55 AM 62.6 °F - 55.4 °F 77% 29.89 in 10.0 mi Calm Calm - N/A   Scattered Clouds
5:19 AM 59.0 °F - 55.4 °F 88% 29.89 in 10.0 mi Calm Calm - N/A   Scattered Clouds
5:37 AM 59.0 °F - 55.4 °F 88% 29.90 in 10.0 mi Calm Calm - N/A   Clear
5:55 AM 59.0 °F - 55.4 °F 88% 29.90 in 10.0 mi Calm Calm - N/A   Clear
5:56 AM 60.8 °F - 55.4 °F 82% 29.90 in 10.0 mi Calm Calm - N/A   Clear
6:15 AM 60.8 °F - 55.4 °F 82% 29.90 in 10.0 mi Calm Calm - N/A   Clear
6:35 AM 62.6 °F - 57.2 °F 82% 29.90 in 10.0 mi Calm Calm - N/A   Clear
6:36 AM 62.6 °F - 57.2 °F 82% 29.90 in 10.0 mi Calm Calm - N/A   Clear
6:59 AM 69.8 °F - 60.8 °F 73% 29.90 in 10.0 mi SSE 3.5 mph - N/A   Clear
7:17 AM 71.6 °F - 60.8 °F 69% 29.90 in 10.0 mi SSE 5.8 mph - N/A   Clear
7:35 AM 73.4 °F - 60.8 °F 65% 29.90 in 10.0 mi SSE 6.9 mph - N/A   Clear
7:55 AM 75.2 °F - 60.8 °F 61% 29.90 in 10.0 mi SSE 6.9 mph - N/A   Clear
7:56 AM 75.2 °F - 60.8 °F 61% 29.90 in 10.0 mi SSE 6.9 mph - N/A   Clear
8:15 AM 75.2 °F - 60.8 °F 61% 29.90 in 10.0 mi SSE 6.9 mph - N/A   Clear
8:20 AM 77.0 °F - 62.6 °F 61% 29.90 in 10.0 mi SSE 6.9 mph - N/A   Clear
8:38 AM 78.8 °F - 62.6 °F 57% 29.90 in 10.0 mi South 9.2 mph - N/A   Clear
8:56 AM 78.8 °F - 62.6 °F 57% 29.90 in 10.0 mi SSE 6.9 mph - N/A   Clear
9:15 AM 80.6 °F 82.3 °F 64.4 °F 58% 29.91 in 10.0 mi SSE 9.2 mph - N/A   Clear
9:35 AM 82.4 °F 83.9 °F 64.4 °F 54% 29.90 in 10.0 mi South 8.1 mph - N/A   Clear
9:59 AM 82.4 °F 83.9 °F 64.4 °F 54% 29.90 in 10.0 mi SSE 11.5 mph - N/A   Clear
10:17 AM 82.4 °F 83.9 °F 64.4 °F 54% 29.90 in 10.0 mi SSE 10.4 mph 16.1 mph N/A   Clear
10:35 AM 84.2 °F 86.6 °F 66.2 °F 55% 29.90 in 10.0 mi SSE 10.4 mph - N/A   Clear
10:55 AM 84.2 °F 85.6 °F 64.4 °F 51% 29.90 in 10.0 mi South 8.1 mph 18.4 mph N/A   Clear
11:15 AM 86.0 °F 87.3 °F 64.4 °F 48% 29.90 in 10.0 mi South 11.5 mph 18.4 mph N/A   Clear
11:20 AM 86.0 °F 87.3 °F 64.4 °F 48% 29.90 in 10.0 mi SSE 11.5 mph 18.4 mph N/A   Clear
11:38 AM 86.0 °F 87.3 °F 64.4 °F 48% 29.90 in 10.0 mi South 10.4 mph - N/A   Clear
11:56 AM 87.8 °F 89.4 °F 64.4 °F 46% 29.90 in 10.0 mi South 13.8 mph - N/A   Clear
12:15 PM 87.8 °F 88.5 °F 62.6 °F 43% 29.90 in 10.0 mi South 8.1 mph 17.3 mph N/A   Clear
12:35 PM 89.6 °F 90.1 °F 62.6 °F 40% 29.90 in 10.0 mi SSE 12.7 mph 18.4 mph N/A   Clear
12:59 PM 89.6 °F 89.5 °F 60.8 °F 38% 29.89 in 10.0 mi South 15.0 mph 21.9 mph N/A   Clear
1:17 PM 89.6 °F 89.5 °F 60.8 °F 38% 29.89 in 10.0 mi South 13.8 mph 18.4 mph N/A   Clear
1:35 PM 89.6 °F 89.5 °F 60.8 °F 38% 29.89 in 10.0 mi SSE 13.8 mph 17.3 mph N/A   Scattered Clouds
1:55 PM 89.6 °F 90.1 °F 62.6 °F 40% 29.89 in 10.0 mi South 11.5 mph 20.7 mph N/A   Clear
2:15 PM 89.6 °F 89.5 °F 60.8 °F 38% 29.89 in 10.0 mi SSE 16.1 mph 21.9 mph N/A   Clear
2:20 PM 89.6 °F 88.9 °F 59.0 °F 36% 29.89 in 10.0 mi SSE 13.8 mph 19.6 mph N/A   Clear
2:38 PM 89.6 °F 88.9 °F 59.0 °F 36% 29.89 in 10.0 mi South 13.8 mph - N/A   Clear
2:56 PM 89.6 °F 88.9 °F 59.0 °F 36% 29.89 in 10.0 mi South 9.2 mph 18.4 mph N/A   Clear
3:15 PM 89.6 °F 89.5 °F 60.8 °F 38% 29.88 in 10.0 mi SSE 10.4 mph - N/A   Clear
3:35 PM 89.6 °F 89.5 °F 60.8 °F 38% 29.88 in 10.0 mi South 8.1 mph - N/A   Clear
3:36 PM 89.6 °F 89.5 °F 60.8 °F 38% 29.88 in 10.0 mi South 8.1 mph - N/A   Clear
3:59 PM 89.6 °F 88.9 °F 59.0 °F 36% 29.88 in 10.0 mi SE 9.2 mph 18.4 mph N/A   Clear
4:17 PM 89.6 °F 88.9 °F 59.0 °F 36% 29.88 in 10.0 mi SSE 11.5 mph 17.3 mph N/A   Clear
4:35 PM 89.6 °F 88.1 °F 57.2 °F 33% 29.88 in 10.0 mi SSE 12.7 mph 21.9 mph N/A   Clear
4:55 PM 89.6 °F 88.1 °F 57.2 °F 33% 29.88 in 10.0 mi SSE 13.8 mph 21.9 mph N/A   Clear
5:15 PM 89.6 °F 88.1 °F 57.2 °F 33% 29.87 in 10.0 mi South 10.4 mph 17.3 mph N/A   Clear
5:19 PM 89.6 °F 88.1 °F 57.2 °F 33% 29.87 in 10.0 mi South 11.5 mph - N/A   Clear
5:38 PM 89.6 °F 88.1 °F 57.2 °F 33% 29.87 in 10.0 mi SSE 10.4 mph - N/A   Clear
5:56 PM 89.6 °F 87.7 °F 55.4 °F 31% 29.87 in 10.0 mi SSE 13.8 mph 19.6 mph N/A   Clear
6:15 PM 89.6 °F 87.7 °F 55.4 °F 31% 29.87 in 10.0 mi SSE 13.8 mph 17.3 mph N/A   Clear
6:35 PM 87.8 °F 86.1 °F 55.4 °F 33% 29.87 in 10.0 mi SSE 10.4 mph 19.6 mph N/A   Clear
6:59 PM 87.8 °F 86.5 °F 57.2 °F 35% 29.86 in 10.0 mi South 8.1 mph 17.3 mph N/A   Clear
7:17 PM 87.8 °F 86.5 °F 57.2 °F 35% 29.86 in 10.0 mi SSE 10.4 mph - N/A   Clear
7:35 PM 86.0 °F 85.4 °F 59.0 °F 40% 29.86 in 10.0 mi SE 6.9 mph - N/A   Clear
7:55 PM 84.2 °F 83.0 °F 55.4 °F 37% 29.86 in 10.0 mi SE 9.2 mph - N/A   Clear
8:15 PM 84.2 °F 83.0 °F 55.4 °F 37% 29.86 in 10.0 mi SE 8.1 mph - N/A   Clear
8:20 PM 82.4 °F 81.7 °F 55.4 °F 39% 29.86 in 10.0 mi SE 6.9 mph - N/A   Clear
8:38 PM 82.4 °F 81.7 °F 55.4 °F 39% 29.87 in 10.0 mi SE 8.1 mph - N/A   Clear
8:56 PM 80.6 °F 80.5 °F 55.4 °F 42% 29.87 in 10.0 mi SE 5.8 mph - N/A   Clear
9:15 PM 80.6 °F 80.5 °F 55.4 °F 42% 29.88 in 10.0 mi SE 5.8 mph - N/A   Clear
9:35 PM 78.8 °F - 55.4 °F 44% 29.88 in 10.0 mi SE 5.8 mph - N/A   Clear
9:59 PM 78.8 °F - 55.4 °F 44% 29.89 in 10.0 mi SE 6.9 mph - N/A   Clear
10:17 PM 75.2 °F - 57.2 °F 53% 29.89 in 10.0 mi ESE 4.6 mph - N/A   Clear
10:35 PM 75.2 °F - 57.2 °F 53% 29.89 in 10.0 mi ESE 6.9 mph - N/A   Clear
10:36 PM 75.2 °F - 57.2 °F 53% 29.89 in 10.0 mi ESE 6.9 mph - N/A   Clear
10:55 PM 75.2 °F - 57.2 °F 53% 29.89 in 10.0 mi ESE 6.9 mph - N/A   Clear
10:56 PM 75.2 °F - 57.2 °F 53% 29.89 in 10.0 mi ESE 6.9 mph - N/A   Clear
11:15 PM 75.2 °F - 57.2 °F 53% 29.89 in 10.0 mi ESE 8.1 mph - N/A   Clear
11:20 PM 75.2 °F - 55.4 °F 50% 29.89 in 10.0 mi ESE 8.1 mph - N/A   Clear
11:38 PM 75.2 °F - 55.4 °F 50% 29.89 in 10.0 mi SE 6.9 mph - N/A   Clear
11:56 PM 73.4 °F - 55.4 °F 53% 29.90 in 10.0 mi SE 8.1 mph - N/A   Clear